Weather History for KOZR - January, 2014

Change the Weather History Date:

Sunday, January 26, 2014

  Actual Average Record
Temperature  
Mean Temperature 46 °F -  
Max Temperature 59 °F 58 °F 73 °F (1999)
Min Temperature 32 °F 38 °F 24 °F (2000)
Degree Days  
Heating Degree Days 20    
Moisture  
Dew Point 35 °F    
Average Humidity 72    
Maximum Humidity 100    
Minimum Humidity 29    
Precipitation  
Precipitation 0.00 in - - ()
Sea Level Pressure  
Sea Level Pressure 30.00 in    
Wind  
Wind Speed 3 mph (South)    
Max Wind Speed 10 mph    
Max Gust Speed -    
Visibility 9 miles    
Events      
Averages and records for this station are not official NWS values.
T = Trace of Precipitation, MM = Missing Value Source: NWS Daily Summary

Daily Weather History Graph

Daily Weather History Graph

Search for Another Location

Airport or City:

Trip Planner

Search our weather history database for the weather conditions in past years. The results will help you decide how hot, cold, wet, or windy it might be!

Date:

Astronomy

Jan. 26, 2014 Rise Set
Actual Time 6:38 AM CST 5:12 PM CST
Civil Twilight 6:12 AM CST 5:38 PM CST
Nautical Twilight 5:43 AM CST 6:07 PM CST
Astronomical Twilight 5:14 AM CST 6:36 PM CST
Moon 2:14 AM CST (1/26) 1:03 PM CST (1/26)
Length of Visible Light 11h 25m
Length of Day
10h 34m
Waning Crescent, 23% of the Moon is Illuminated
Jan 26
Waning Crescent
Jan 30
New
Feb 6
First Quarter
Feb 14
Full
Feb 22
Last Quarter

Hourly Weather History & Observations

Time (CST) Temp. Windchill Dew Point Humidity Pressure Visibility Wind Dir Wind Speed Gust Speed Precip Events Conditions
12:03 AM 37.4 °F - 35.6 °F 93% 30.03 in 9.0 mi SSW 2.3 mph - N/A   Clear
12:58 AM 38.5 °F 36.1 °F 34.9 °F 87% 30.03 in 10.0 mi NNW 3.5 mph - N/A   Clear
1:58 AM 35.4 °F - 32.7 °F 90% 30.02 in 10.0 mi Calm Calm - N/A   Clear
2:58 AM 34.3 °F - 32.4 °F 92% 30.02 in 10.0 mi South 2.3 mph - N/A   Clear
3:58 AM 33.4 °F - 32.7 °F 97% 30.02 in 3.0 mi SSW 2.3 mph - N/A   Clear
4:03 AM 32.0 °F 28.7 °F 32.0 °F 100% 30.02 in 1.8 mi South 3.5 mph - N/A   Clear
4:08 AM 32.0 °F 28.7 °F 32.0 °F 100% 30.02 in 2.0 mi South 3.5 mph - N/A   Clear
4:13 AM 32.0 °F 28.7 °F 32.0 °F 100% 30.02 in 4.0 mi South 3.5 mph - N/A   Clear
4:58 AM 33.8 °F - 32.9 °F 96% 30.04 in 10.0 mi SSW 2.3 mph - N/A   Clear
5:58 AM 34.7 °F - 34.0 °F 97% 30.04 in 10.0 mi SSE 1.2 mph - N/A   Clear
6:58 AM 32.9 °F - 31.6 °F 95% 30.05 in 10.0 mi Calm Calm - N/A   Clear
7:58 AM 36.5 °F - 34.7 °F 93% 30.07 in 10.0 mi Calm Calm - N/A   Clear
8:58 AM 41.4 °F - 38.7 °F 90% 30.08 in 10.0 mi Calm Calm - N/A   Partly Cloudy
9:58 AM 47.8 °F - 35.6 °F 63% 30.09 in 10.0 mi SE 2.3 mph - N/A   Partly Cloudy
10:58 AM 53.2 °F - 31.6 °F 44% 30.07 in 10.0 mi South 5.8 mph - N/A   Partly Cloudy
11:58 AM 56.8 °F - 31.5 °F 38% 30.04 in 10.0 mi Variable 5.8 mph - N/A   Clear
12:58 PM 58.1 °F - 28.2 °F 32% 30.00 in 10.0 mi South 8.1 mph - N/A   Partly Cloudy
1:58 PM 59.4 °F - 26.8 °F 29% 29.97 in 10.0 mi SW 9.2 mph - N/A   Partly Cloudy
2:58 PM 58.6 °F - 28.4 °F 32% 29.95 in 10.0 mi SSW 10.4 mph - N/A   Scattered Clouds
3:58 PM 57.2 °F - 29.8 °F 35% 29.94 in 10.0 mi South 5.8 mph - N/A   Partly Cloudy
4:58 PM 55.9 °F - 31.8 °F 40% 29.94 in 10.0 mi SSE 4.6 mph - N/A   Scattered Clouds
5:58 PM 53.4 °F - 35.1 °F 50% 29.95 in 10.0 mi South 3.5 mph - N/A   Scattered Clouds
6:58 PM 52.7 °F - 38.1 °F 58% 29.96 in 10.0 mi South 4.6 mph - N/A   Scattered Clouds
7:58 PM 52.0 °F - 41.7 °F 68% 29.97 in 10.0 mi SSW 3.5 mph - N/A   Mostly Cloudy
8:58 PM 50.9 °F - 41.5 °F 70% 29.97 in 10.0 mi SSE 4.6 mph - N/A   Overcast
9:18 PM 50.0 °F - 41.0 °F 71% 29.95 in 10.0 mi SSE 3.5 mph - N/A   Overcast
9:23 PM 50.0 °F - 41.0 °F 71% 29.95 in 10.0 mi SSE 3.5 mph - N/A   Mostly Cloudy
9:58 PM 49.5 °F - 40.6 °F 72% 29.97 in 10.0 mi South 4.6 mph - N/A   Mostly Cloudy
10:58 PM 49.1 °F - 41.7 °F 76% 29.96 in 10.0 mi SSE 5.8 mph - N/A   Mostly Cloudy
11:23 PM 50.0 °F - 42.8 °F 76% 29.95 in 10.0 mi South 5.8 mph - N/A   Overcast
11:53 PM 50.0 °F - 42.8 °F 76% 29.95 in 10.0 mi South 4.6 mph - N/A   Mostly Cloudy
11:58 PM 49.1 °F - 43.7 °F 82% 29.96 in 10.0 mi South 4.6 mph - N/A   Mostly Cloudy